Regional Weather Roundup
Issued by NWS Newport/Morehead, NC

Current Version | Previous Version | Graphics & Text | Print | Product List | Glossary On
Versions: 1 2 3 4 5 6 7 8 9 10 11 12 13 14 15 16 17 18 19 20 21 22 23 24 25 26 27 28 29 30 31 32 33 34 35 36 37 38 39 40 41 42 43 44 45 46 47 48 49 50
000 ASUS42 KMHX 182125 RWRMHX WEATHER ROUNDUP FOR EASTERN NORTH CAROLINA NATIONAL WEATHER SERVICE NEWPORT/MOREHEAD CITY NC 500 PM EDT FRI AUG 18 2017 NOTE: "FAIR" INDICATES FEW OR NO CLOUDS BELOW 12,000 FEET WITH NO SIGNIFICANT WEATHER AND/OR OBSTRUCTIONS TO VISIBILITY NCZ015>017-031-032-045>047-102-103-182200- NORTH COAST CITY SKY/WX TMP DP RH WIND PRES REMARKS EDENTON DRIZZLE 83 77 81 S13 29.87S ELIZABETH CITY CLOUDY 85 79 82 S15G22 29.86F KITTY HAWK CLOUDY 79 73 80 CALM 29.86F MANTEO CLOUDY 81 75 80 S14 29.87F $$ NCZ045>047-081-094-103-104-182200- CENTRAL COAST CITY SKY/WX TMP DP RH WIND PRES REMARKS FRISCO CLOUDY 86 82 88 SW10 29.90F HX 104 $$ NCZ095-097-098-100-101-182200- SOUTHERN COAST CITY SKY/WX TMP DP RH WIND PRES REMARKS BEAUFORT MOSUNNY 87 83 87 SW17 29.90F HX 108 CEDAR ISLAND NOT AVBL JACKSONVILLE MOSUNNY 87 78 74 S13G20 29.88S HX 100 PINEY ISLAND CLOUDY N/A N/A N/A S5 29.89F WILMINGTON CLOUDY 93 77 59 S15 29.88S HX 107 $$ NCZ011>013-027>030-043-044-078>080-089-090>093-098-182200- COASTAL PLAIN CITY SKY/WX TMP DP RH WIND PRES REMARKS AHOSKIE N/A 91 78 66 S6 29.84S HX 105 CLINTON MOSUNNY 95 76 54 SW7 29.87S HX 108 ELIZABETHTOWN NOT AVBL GOLDSBORO MOSUNNY 95 77 55 SW10 29.85F HX 109 GREENVILLE MOSUNNY 91 77 62 S9 29.88S HX 105 HAVELOCK PTSUNNY 90 79 70 S14 29.89F HX 106 KENANSVILLE PTSUNNY 93 75 55 SW5 29.87S HX 104 KINSTON NOT AVBL NEW BERN CLOUDY 86 82 88 S8 29.89F HX 104 RICHLANDS PTSUNNY 91 81 72 SE12 29.87F HX 111 ROCKY MOUNT SUNNY 93 77 59 SW8 29.85F HX 107 WASHINGTON CLOUDY 86 76 73 S9 29.87F WHITEVILLE PTSUNNY 94 73 50 S10 29.88S HX 103 $$ AMZ130-135-150-152-154-156-158-170-250-252-270-ANZ085-086-088-633-658-670-182200- MARINE OBSERVATIONS STATION/POSITION TIME TEMP WIND PRES WAVE SWELL AIR SEA DIR/SP/G HT/PER HT/PER (UTC) (F) (DEG/KT/KT) (MB) (FT/S) (FT/S) CHESAPEAKE LIGHT NOT AVBL 64 E VA BEACH 2050 80 78 190/ 14/ 16 1011.8 3/ 9 2/ 9 DUCK 2100 83 74 190/ 13/ 17 1010.6 2 E DUCK 2100 79 N/A 2/ 8 OREGON INLET 2100 82 86 180/ 13/ 17 1011.6 13E OREGON INLT 2018 81 N/A 3/ 4 2/ 9 HATTERAS CG 2100 85 84 210/ 8/ 12 1012.7 DIAMOND BUOY 2050 86 86 210/ 14/ 16 1012.9 3/ 5 2/ 8 CAPE LOOKOUT 2100 86 200/ 13/ 17 1012.4 BEAUFORT LAB 2100 86 82 200/ 12/ 16 1012.0 30 SE NEW RVR IN 2108 83 84 220/ 12/ 16 1012.9 30 SE NEW RVR IN 2013 84 N/A 3/ 5 27 SE WRIGHTSVLE 2108 85 84 200/ 14/ 19 1012.6 5 SE WRIGHTSVLE 2108 85 85 200/ 14/ 21 1012.3 225 S CAPE HAT 2050 84 85 220/ 8/ 10 1015.4 3/ 4 3/ 4 41 SE CHARLESTON 2110 84 86 210/ 14/ 16 1013.0 $$

USA.gov is the U.S. government's official web portal to all federal, state and local government web resources and services.